Location: Observatoire de Paris
(48.8363°N, 2.3365°E)
Time: 08:16:52
(UTC+01:00)

BUGSAT 1 - Pass Details

Date: 27 September 2021
Orbit: 556 x 602 km, 98.1° (Epoch: 22 October)

Event Time Altitude Azimuth Distance (km) Brightness Sun altitude
Rises 05:33:32 0° 17° (NNE) 2,801 ? -12.4°
Reaches altitude 10° 05:35:44 10° 21° (NNE) 1,890 ? -12.1°
Maximum altitude 05:39:47 59° 101° (ESE) 658 ? -11.4°
Drops below altitude 10° 05:43:44 10° 182° (S) 1,851 ? -10.8°
Sets 05:45:52 0° 186° (S) 2,737 ? -10.4°
